This is the latest recevied weather packets stored in our database for station/object KM4CBK. If no packets are shown the sender has not sent any weather packets the latest 10 day(s).
| Time | Temp. | Humidity | Pressure | Rain* | Wind** | Luminosity | Snow |
|---|---|---|---|---|---|---|---|
| 1777686695 | 12.78° C | 99% | 1012.9 hPa | 1.78 mm | - | 0 W/m² | - |
| 1777686393 | 13.33° C | 99% | 1013.1 hPa | 1.78 mm | - | 0 W/m² | - |
| 1777686090 | 12.78° C | 99% | 1013 hPa | 1.27 mm | - | 0 W/m² | - |
| 1777685786 | 13.33° C | 99% | 1012.8 hPa | 1.78 mm | - | 0 W/m² | - |
| 1777685481 | 13.33° C | 99% | 1012.9 hPa | 1.78 mm | - | 0 W/m² | - |
| 1777685179 | 13.33° C | 99% | 1012.9 hPa | 1.78 mm | - | 0 W/m² | - |
| 1777684877 | 13.33° C | 99% | 1012.6 hPa | 1.27 mm | - | 0 W/m² | - |
| 1777684573 | 13.89° C | 99% | 1012.9 hPa | 1.78 mm | - | 0 W/m² | - |
| 1777684269 | 13.89° C | 99% | 1012.8 hPa | 1.27 mm | - | 0 W/m² | - |
| 1777683967 | 13.89° C | 99% | 1013.1 hPa | 1.27 mm | - | 0 W/m² | - |
| 1777683663 | 14.44° C | 99% | 1013.2 hPa | 1.27 mm | - | 0 W/m² | - |
| 1777683361 | 14.44° C | 99% | 1013.2 hPa | 1.27 mm | - | 0 W/m² | - |
| 1777683058 | 14.44° C | 99% | 1013 hPa | 0.51 mm | - | 0 W/m² | - |
| 1777682754 | 14.44° C | 99% | 1012.9 hPa | 0.51 mm | - | 0 W/m² | - |
| 1777682451 | 14.44° C | 99% | 1013 hPa | 0.51 mm | - | 0 W/m² | - |
| 1777682149 | 14.44° C | 99% | 1012.8 hPa | 1.27 mm | - | 0 W/m² | - |
| 1777681846 | 14.44° C | 99% | 1012.9 hPa | 0.51 mm | - | 0 W/m² | - |
| 1777681542 | 14.44° C | 99% | 1012.9 hPa | 0.51 mm | - | 0 W/m² | - |
| 1777681239 | 15° C | 99% | 1012.8 hPa | 0.51 mm | - | 0 W/m² | - |
| 1777680937 | 14.44° C | 99% | 1012.8 hPa | 0.51 mm | - | 0 W/m² | - |
| 1777680634 | 15° C | 99% | 1012.6 hPa | 0.51 mm | - | 0 W/m² | - |
| 1777680332 | 15° C | 99% | 1012.3 hPa | 0.51 mm | - | 0 W/m² | - |
| 1777680029 | 15° C | 99% | 1012 hPa | 0.51 mm | - | 0 W/m² | - |
| 1777679724 | 15° C | 99% | 1011.8 hPa | 0 mm | - | 1 W/m² | - |
| 1777679420 | 15° C | 99% | 1011.8 hPa | 0.51 mm | - | 1 W/m² | - |
* Rain latest hour (hover to see other rain measurements)
** Current wind speed in m/s (hover to see current wind gust speed)